Warroad, MN

9:22 AM CDT on April 30, 2017 (GMT -0500)
Warroad International-Carlson

Weather History for KRRT - December, 2012

Change the Weather History Date:

Tuesday, December 4, 2012

  Actual Average Record
Temperature  
Mean Temperature 14 °F -  
Max Temperature 19 °F 24 °F 44 °F (1975)
Min Temperature 8 °F 6 °F -25 °F (1991)
Degree Days  
Heating Degree Days 52    
Moisture  
Dew Point 6 °F    
Average Humidity 77    
Maximum Humidity 92    
Minimum Humidity 67    
Precipitation  
Precipitation 0.00 in - - ()
Sea Level Pressure  
Sea Level Pressure 30.15 in    
Wind  
Wind Speed 12 mph (WNW)    
Max Wind Speed 21 mph    
Max Gust Speed 30 mph    
Visibility 9 miles    
Events Snow    
Averages and records for this station are not official NWS values.
T = Trace of Precipitation, MM = Missing Value Source: NWS Daily Summary

Daily Weather History Graph

Daily Weather History Graph

Search for Another Location

Airport or City:

Trip Planner

Search our weather history database for the weather conditions in past years. The results will help you decide how hot, cold, wet, or windy it might be!

Date:

Astronomy

Dec. 04, 2012 Rise Set
Actual Time 7:58 AM CST 4:25 PM CST
Civil Twilight 7:21 AM CST 5:02 PM CST
Nautical Twilight 6:41 AM CST 5:42 PM CST
Astronomical Twilight 6:03 AM CST 6:20 PM CST
Moon 10:34 PM CST (12/4) 11:34 AM CST (12/4)
Length of Visible Light 9h 40m
Length of Day
8h 27m
Waning Gibbous, 69% of the Moon is Illuminated
Dec 4
Waning Gibbous
Dec 6
Last Quarter
Dec 13
New
Dec 19
First Quarter
Dec 28
Full

Hourly Weather History & Observations

Time (CST) Temp. Windchill Dew Point Humidity Pressure Visibility Wind Dir Wind Speed Gust Speed Precip Events Conditions
12:14 AM 12.2 °F -1.8 °F 5.0 °F 73% 29.82 in 10.0 mi West 11.5 mph 21.9 mph N/A   Overcast
12:35 AM 12.2 °F -3.7 °F 5.0 °F 73% 29.82 in 10.0 mi West 15.0 mph 23.0 mph N/A   Overcast
12:54 AM 12.2 °F -6.3 °F 3.2 °F 67% 29.84 in 10.0 mi West 20.7 mph 27.6 mph N/A   Overcast
1:14 AM 12.2 °F -3.7 °F 3.2 °F 67% 29.84 in 10.0 mi West 15.0 mph 27.6 mph N/A   Overcast
1:35 AM 10.4 °F -4.8 °F 3.2 °F 73% 29.85 in 10.0 mi West 12.7 mph 26.5 mph N/A   Overcast
1:54 AM 10.4 °F -7.2 °F 3.2 °F 73% 29.86 in 10.0 mi West 17.3 mph 24.2 mph N/A   Overcast
2:14 AM 10.4 °F -7.7 °F 3.2 °F 73% 29.87 in 10.0 mi West 18.4 mph 24.2 mph N/A   Overcast
2:54 AM 10.4 °F -7.7 °F 3.2 °F 73% 29.90 in 10.0 mi West 18.4 mph 24.2 mph N/A   Overcast
3:14 AM 10.4 °F -6.0 °F 3.2 °F 73% 29.91 in 10.0 mi West 15.0 mph 20.7 mph N/A   Overcast
3:34 AM 10.4 °F -8.6 °F 3.2 °F 73% 29.92 in 10.0 mi West 20.7 mph 29.9 mph N/A   Overcast
3:54 AM 10.4 °F -7.2 °F 3.2 °F 73% 29.93 in 7.0 mi West 17.3 mph 26.5 mph N/A   Overcast
4:14 AM 10.4 °F -6.0 °F 3.2 °F 73% 29.94 in 10.0 mi West 15.0 mph 21.9 mph N/A   Overcast
4:34 AM 10.4 °F -4.8 °F 3.2 °F 73% 29.95 in 10.0 mi West 12.7 mph 21.9 mph N/A   Overcast
4:54 AM 8.6 °F -9.5 °F 3.2 °F 79% 29.96 in 10.0 mi West 17.3 mph 25.3 mph N/A   Overcast
5:14 AM 8.6 °F -7.0 °F 3.2 °F 79% 29.97 in 10.0 mi West 12.7 mph 21.9 mph N/A   Overcast
5:34 AM 8.6 °F -7.0 °F 3.2 °F 79% 29.98 in 7.0 mi West 12.7 mph 18.4 mph N/A   Overcast
5:54 AM 8.6 °F -7.0 °F 3.2 °F 79% 29.99 in 7.0 mi West 12.7 mph 19.6 mph N/A   Overcast
6:15 AM 8.6 °F -6.3 °F 3.2 °F 79% 30.00 in 7.0 mi West 11.5 mph 23.0 mph N/A   Overcast
6:34 AM 10.4 °F -5.4 °F 3.2 °F 73% 30.01 in 7.0 mi West 13.8 mph 19.6 mph N/A   Overcast
6:54 AM 10.4 °F -5.4 °F 3.2 °F 73% 30.03 in 7.0 mi West 13.8 mph 21.9 mph N/A   Overcast
7:14 AM 10.4 °F -6.0 °F 3.2 °F 73% 30.04 in 7.0 mi West 15.0 mph 20.7 mph N/A Snow Light Snow
7:34 AM 10.4 °F -3.3 °F 5.0 °F 79% 30.04 in 5.0 mi West 10.4 mph 19.6 mph N/A Snow Light Snow
7:54 AM 10.4 °F -5.4 °F 5.0 °F 79% 30.05 in 5.0 mi West 13.8 mph 19.6 mph N/A Snow Light Snow
8:14 AM 10.4 °F -3.3 °F 5.0 °F 79% 30.06 in 5.0 mi West 10.4 mph 18.4 mph N/A Snow Light Snow
8:34 AM 10.4 °F -2.4 °F 5.0 °F 79% 30.08 in 3.0 mi West 9.2 mph 18.4 mph N/A Snow Light Snow
8:54 AM 10.4 °F -4.1 °F 5.0 °F 79% 30.08 in 4.0 mi West 11.5 mph - N/A Snow Light Snow
9:14 AM 10.4 °F -3.3 °F 5.0 °F 79% 30.10 in 4.0 mi West 10.4 mph 19.6 mph N/A Snow Light Snow
9:35 AM 10.4 °F -4.8 °F 5.0 °F 79% 30.11 in 5.0 mi West 12.7 mph 18.4 mph N/A Snow Light Snow
9:54 AM 12.2 °F -2.5 °F 6.8 °F 79% 30.13 in 4.0 mi West 12.7 mph 20.7 mph N/A Snow Light Snow
10:14 AM 12.2 °F -4.8 °F 6.8 °F 79% 30.14 in 3.0 mi West 17.3 mph 21.9 mph N/A Snow Light Snow
10:35 AM 12.2 °F -1.0 °F 6.8 °F 79% 30.15 in 4.0 mi West 10.4 mph - N/A Snow Light Snow
10:54 AM 12.2 °F -1.8 °F 6.8 °F 79% 30.16 in 5.0 mi West 11.5 mph 18.4 mph N/A Snow Light Snow
11:14 AM 14.0 °F -1.4 °F 6.8 °F 73% 30.17 in 7.0 mi West 15.0 mph - N/A Snow Light Snow
11:35 AM 15.8 °F 2.7 °F 6.8 °F 68% 30.19 in 10.0 mi WNW 11.5 mph - N/A Snow Light Snow
12:14 PM 15.8 °F 2.1 °F 8.6 °F 73% 30.19 in 7.0 mi WNW 12.7 mph 20.7 mph N/A Snow Light Snow
12:35 PM 17.6 °F 5.7 °F 8.6 °F 68% 30.20 in 10.0 mi WNW 10.4 mph 19.6 mph N/A   Mostly Cloudy
12:54 PM 17.6 °F 5.0 °F 8.6 °F 68% 30.21 in 10.0 mi WNW 11.5 mph 17.3 mph N/A   Scattered Clouds
1:14 PM 19.4 °F 6.6 °F 10.4 °F 68% 30.21 in 10.0 mi WNW 12.7 mph 17.3 mph N/A   Scattered Clouds
1:34 PM 17.6 °F 5.7 °F 8.6 °F 68% 30.22 in 10.0 mi WNW 10.4 mph - N/A   Scattered Clouds
1:54 PM 19.4 °F 7.9 °F 10.4 °F 68% 30.22 in 10.0 mi WNW 10.4 mph - N/A   Clear
2:14 PM 19.4 °F 9.5 °F 10.4 °F 68% 30.22 in 10.0 mi West 8.1 mph - N/A   Scattered Clouds
2:34 PM 19.4 °F 7.2 °F 10.4 °F 68% 30.23 in 10.0 mi WNW 11.5 mph - N/A   Clear
2:54 PM 19.4 °F 8.6 °F 10.4 °F 68% 30.24 in 10.0 mi NW 9.2 mph - N/A   Clear
3:14 PM 19.4 °F 9.5 °F 10.4 °F 68% 30.25 in 10.0 mi NW 8.1 mph - N/A   Clear
3:34 PM 17.6 °F 6.4 °F 8.6 °F 68% 30.27 in 10.0 mi NW 9.2 mph - N/A   Clear
3:54 PM 17.6 °F 9.3 °F 8.6 °F 68% 30.27 in 10.0 mi NW 5.8 mph - N/A   Clear
4:14 PM 15.8 °F 6.1 °F 8.6 °F 73% 30.28 in 10.0 mi NW 6.9 mph - N/A   Clear
4:54 PM 14.0 °F 5.1 °F 8.6 °F 79% 30.30 in 10.0 mi NW 5.8 mph - N/A   Clear
5:14 PM 14.0 °F 5.1 °F 8.6 °F 79% 30.31 in 10.0 mi WNW 5.8 mph - N/A   Clear
5:34 PM 12.2 °F 4.3 °F 6.8 °F 79% 30.32 in 10.0 mi WNW 4.6 mph - N/A   Clear
5:54 PM 12.2 °F 2.9 °F 6.8 °F 79% 30.33 in 10.0 mi WNW 5.8 mph - N/A   Clear
6:14 PM 12.2 °F 4.3 °F 6.8 °F 79% 30.34 in 10.0 mi NW 4.6 mph - N/A Snow Light Snow
6:34 PM 10.4 °F 0.8 °F 6.8 °F 85% 30.36 in 10.0 mi NW 5.8 mph - N/A Snow Light Snow
6:54 PM 10.4 °F 2.2 °F 6.8 °F 85% 30.36 in 10.0 mi NW 4.6 mph - N/A   Clear
7:14 PM 10.4 °F -0.4 °F 6.8 °F 85% 30.35 in 10.0 mi North 6.9 mph - N/A   Clear
7:34 PM 10.4 °F 4.0 °F 6.8 °F 85% 30.34 in 10.0 mi NNW 3.5 mph - N/A Snow Light Snow
7:55 PM 10.4 °F - 6.8 °F 85% 30.33 in 10.0 mi Calm Calm - N/A Snow Light Snow
8:14 PM 10.4 °F 4.0 °F 6.8 °F 85% 30.33 in 10.0 mi NW 3.5 mph - N/A Snow Light Snow
8:34 PM 12.2 °F - 8.6 °F 85% 30.33 in 10.0 mi Calm Calm - N/A   Overcast
8:53 PM 12.2 °F - 8.6 °F 85% 30.33 in 10.0 mi Calm Calm - N/A   Overcast
9:14 PM 12.2 °F - 8.6 °F 85% 30.33 in 10.0 mi Calm Calm - N/A   Overcast
9:34 PM 12.2 °F - 8.6 °F 85% 30.33 in 10.0 mi Calm Calm - N/A   Overcast
9:53 PM 12.2 °F - 8.6 °F 85% 30.34 in 10.0 mi Calm Calm - N/A Snow Light Snow
10:14 PM 12.2 °F - 8.6 °F 85% 30.34 in 10.0 mi Calm Calm - N/A Snow Light Snow
10:34 PM 12.2 °F - 8.6 °F 85% 30.35 in 10.0 mi Calm Calm - N/A   Overcast
10:53 PM 10.4 °F - 8.6 °F 92% 30.36 in 10.0 mi Calm Calm - N/A Snow Light Snow
11:14 PM 10.4 °F 4.0 °F 6.8 °F 85% 30.37 in 10.0 mi SW 3.5 mph - N/A   Clear
11:34 PM 10.4 °F - 6.8 °F 85% 30.37 in 10.0 mi Calm Calm - N/A   Clear
11:53 PM 10.4 °F - 6.8 °F 85% 30.36 in 10.0 mi Calm Calm - N/A   Clear